This is the latest recevied weather packets stored in our database for station/object KG4LKY-5. If no packets are shown the sender has not sent any weather packets the latest 10 day(s).
| Time | Temp. | Humidity | Pressure | Rain* | Wind** | Luminosity | Snow |
|---|---|---|---|---|---|---|---|
| 1777907139 | 16.67° C | 59% | 1016 hPa | 1.78 mm | - | - | - |
| 1777906840 | 16.11° C | 64% | 1015.9 hPa | 1.78 mm | - | - | - |
| 1777906539 | 16.11° C | 62% | 1015.9 hPa | 1.78 mm | - | - | - |
| 1777906239 | 15.56° C | 66% | 1016 hPa | 1.78 mm | - | - | - |
| 1777905938 | 15.56° C | 67% | 1016.1 hPa | 1.78 mm | - | - | - |
| 1777905637 | 15.56° C | 71% | 1016.1 hPa | 1.78 mm | - | - | - |
| 1777905338 | 15° C | 71% | 1016.2 hPa | 1.78 mm | - | - | - |
| 1777905037 | 15.56° C | 70% | 1016.3 hPa | 1.78 mm | - | - | - |
| 1777904737 | 14.44° C | 71% | 1016.3 hPa | 1.78 mm | - | - | - |
| 1777904436 | 15° C | 71% | 1016.5 hPa | 1.78 mm | - | - | - |
| 1777904137 | 14.44° C | 68% | 1016.6 hPa | 1.78 mm | - | - | - |
| 1777903836 | 15° C | 72% | 1016.6 hPa | 1.78 mm | - | - | - |
| 1777903535 | 13.89° C | 74% | 1016.6 hPa | 1.78 mm | - | - | - |
| 1777903236 | 13.89° C | 76% | 1016.8 hPa | 1.78 mm | - | - | - |
| 1777902935 | 13.89° C | 78% | 1016.8 hPa | 1.78 mm | - | - | - |
| 1777902635 | 13.89° C | 86% | 1016.8 hPa | 1.78 mm | - | - | - |
| 1777902334 | 13.89° C | 85% | 1016.9 hPa | 1.78 mm | - | - | - |
| 1777902034 | 13.33° C | 94% | 1016.9 hPa | 1.78 mm | - | - | - |
| 1777901736 | 13.33° C | 95% | 1017 hPa | 1.78 mm | - | - | - |
| 1777901431 | 12.78° C | 96% | 1017.3 hPa | 1.78 mm | - | - | - |
| 1777900830 | 12.78° C | 96% | 1017.2 hPa | 1.78 mm | - | - | - |
| 1777900230 | 11.67° C | 97% | 1017.2 hPa | 1.78 mm | - | - | - |
| 1777899328 | 9.44° C | 100% | 1017.2 hPa | 1.78 mm | - | - | - |
| 1777898727 | 9.44° C | 100% | 1017.3 hPa | 1.78 mm | - | - | - |
| 1777898126 | 10° C | 100% | 1017.2 hPa | 1.78 mm | - | - | - |
* Rain since midnight (hover to see other rain measurements)
** Current wind speed in m/s (hover to see current wind gust speed)